Powrót do katalogu

CZ-6A DEB

AktywnyPO
NORAD 60960·DEBRIS·🇨🇳 China

Wystrzelony Aug 6, 2024 z Taiyuan Satellite Launch Center

Loading…

Następne Przeloty (najbliższe 24 godziny)

TLE

ŚwieżeSource: Space-Track

Epoka: Sep 14, 2026, 07:42 UTC

1 60960U 24140LK  26257.32140030  .00000636  00000-0  28475-3 0  9991
2 60960  89.0699 271.3780 0046007 233.8924 125.8004 14.20880926107244

Śledź CZ-6A DEB w czasie rzeczywistym z AllMySat

Download on the App Store